Tracking 29072 objects as of 20-Jul-2024
HD Live streaming from Space Station
objects crossing your sky now

COSMOS 397 DEB

Track COSMOS 397 DEB now!
10-day predictions


NORAD ID: 5763
Int'l Code: 1971-015CF
Perigee: 849.4 km
Apogee: 1,402.4 km
Inclination: 66.9 °
Period: 107.7 minutes
Semi major axis: 7496 km
RCS: 0.0229 m2 (small)
Launch date: February 25, 1971
Source: Commonwealth of Independent States (former USSR) (CIS)
Launch site: TYURATAM MISSILE AND SPACE COMPLEX (TTMTR)

Note: This is SATELLITE DEBRIS
Your satellite tracking list
Your tracking list is empty




NASA's NSSDC Master Catalog

Two Line Element Set (TLE):
1 05763U 71015CF  24201.93276766  .00001692  00000-0  22691-2 0  9990
2 05763  66.9025  30.1763 0368790 352.8739   6.7149 13.37462706559466
Source of the keplerian elements: AFSPC